Marco Island, FL

10:40 AM EDT on August 25, 2016 (GMT -0400)
Marco Island

Weather History for KMKY - May, 2014

Change the Weather History Date:

Sunday, May 11, 2014

  Actual Average (KAPF) Record (KAPF)
Temperature  
Mean Temperature 80 °F 77 °F  
Max Temperature 89 °F 87 °F 92 °F (2002)
Min Temperature 71 °F 67 °F 60 °F (1982)
Degree Days  
Heating Degree Days 0 0  
Month to date heating degree days 0  
Since 1 July heating degree days 260  
Cooling Degree Days 15 12  
Month to date cooling degree days 127  
Year to date cooling degree days 747  
Growing Degree Days 30 (Base 50)    
Moisture  
Dew Point 69 °F    
Average Humidity 72    
Maximum Humidity 94    
Minimum Humidity 52    
Precipitation  
Precipitation 0.00 in 0.08 in 1.53 in (1977)
Month to date precipitation 0.89  
Year to date precipitation 9.58  
Snow  
Snow 0.00 in - - ()
Month to date snowfall  
Since 1 July snowfall  
Snow Depth -    
Sea Level Pressure  
Sea Level Pressure 30.07 in    
Wind  
Wind Speed 8 mph (ESE)    
Max Wind Speed 14 mph    
Max Gust Speed 18 mph    
Visibility 10 miles    
Events      
T = Trace of Precipitation, MM = Missing Value Source: NWS Daily Summary

Daily Weather History Graph

Daily Weather History Graph

Search for Another Location

Airport or City:

Trip Planner

Search our weather history database for the weather conditions in past years. The results will help you decide how hot, cold, wet, or windy it might be!

Date:

Astronomy

May. 11, 2014 Rise Set
Actual Time 6:42 AM EDT 8:03 PM EDT
Civil Twilight 6:18 AM EDT 8:28 PM EDT
Nautical Twilight 5:48 AM EDT 8:57 PM EDT
Astronomical Twilight 5:18 AM EDT 9:28 PM EDT
Moon 5:15 PM EDT (5/11) 4:26 AM EDT (5/11)
Length of Visible Light 14h 10m
Length of Day
13h 20m
Waxing Gibbous, 89% of the Moon is Illuminated
May 11
Waxing Gibbous
May 14
Full
May 21
Last Quarter
May 28
New
Jun 5
First Quarter

Hourly Weather History & Observations

Time (EDT) Temp. Heat Index Dew Point Humidity Pressure Visibility Wind Dir Wind Speed Gust Speed Precip Events Conditions
12:15 AM 75.2 °F - 69.8 °F 83% 30.09 in 10.0 mi ESE 8.1 mph - N/A   Clear
12:35 AM 75.2 °F - 69.8 °F 83% 30.09 in 10.0 mi ESE 9.2 mph - N/A   Clear
12:55 AM 75.2 °F - 69.8 °F 83% 30.08 in 10.0 mi ESE 6.9 mph - N/A   Clear
1:15 AM 75.2 °F - 69.8 °F 83% 30.08 in 10.0 mi ESE 9.2 mph - N/A   Clear
1:35 AM 73.4 °F - 69.8 °F 88% 30.08 in 10.0 mi East 8.1 mph - N/A   Clear
1:55 AM 73.4 °F - 69.8 °F 88% 30.07 in 10.0 mi East 8.1 mph - N/A   Clear
2:15 AM 73.4 °F - 69.8 °F 88% 30.07 in 10.0 mi East 8.1 mph - N/A   Clear
2:35 AM 73.4 °F - 69.8 °F 88% 30.07 in 10.0 mi East 6.9 mph - N/A   Clear
2:55 AM 73.4 °F - 69.8 °F 88% 30.06 in 10.0 mi East 9.2 mph - N/A   Clear
3:15 AM 73.4 °F - 69.8 °F 88% 30.05 in 10.0 mi ESE 10.4 mph - N/A   Clear
3:35 AM 73.4 °F - 69.8 °F 88% 30.04 in 10.0 mi ESE 9.2 mph - N/A   Clear
3:55 AM 73.4 °F - 69.8 °F 88% 30.04 in 10.0 mi East 9.2 mph - N/A   Clear
4:15 AM 73.4 °F - 69.8 °F 88% 30.05 in 10.0 mi East 6.9 mph - N/A   Clear
4:35 AM 73.4 °F - 69.8 °F 88% 30.05 in 10.0 mi ESE 5.8 mph - N/A   Clear
4:55 AM 73.4 °F - 69.8 °F 88% 30.05 in 10.0 mi ESE 5.8 mph - N/A   Clear
5:15 AM 73.4 °F - 69.8 °F 88% 30.06 in 10.0 mi East 6.9 mph - N/A   Clear
5:35 AM 73.4 °F - 69.8 °F 88% 30.06 in 10.0 mi East 5.8 mph - N/A   Clear
5:55 AM 73.4 °F - 69.8 °F 88% 30.07 in 10.0 mi East 6.9 mph - N/A   Clear
6:15 AM 73.4 °F - 69.8 °F 88% 30.07 in 10.0 mi East 5.8 mph - N/A   Clear
6:35 AM 71.6 °F - 69.8 °F 94% 30.08 in 10.0 mi East 6.9 mph - N/A   Clear
6:55 AM 71.6 °F - 69.8 °F 94% 30.08 in 10.0 mi East 6.9 mph - N/A   Clear
7:15 AM 71.6 °F - 69.8 °F 94% 30.09 in 10.0 mi East 5.8 mph - N/A   Clear
7:35 AM 71.6 °F - 69.8 °F 94% 30.10 in 10.0 mi East 4.6 mph - N/A   Clear
7:55 AM 73.4 °F - 69.8 °F 88% 30.10 in 10.0 mi East 4.6 mph - N/A   Clear
8:15 AM 73.4 °F - 69.8 °F 88% 30.10 in 10.0 mi East 6.9 mph - N/A   Clear
8:35 AM 75.2 °F - 69.8 °F 83% 30.11 in 10.0 mi ESE 6.9 mph - N/A   Clear
8:55 AM 77.0 °F - 69.8 °F 78% 30.12 in 10.0 mi ESE 8.1 mph - N/A   Clear
9:15 AM 78.8 °F - 71.6 °F 78% 30.12 in 10.0 mi ESE 11.5 mph - N/A   Clear
9:35 AM 78.8 °F - 69.8 °F 74% 30.12 in 10.0 mi ESE 8.1 mph - N/A   Clear
9:55 AM 80.6 °F 84.6 °F 71.6 °F 74% 30.13 in 10.0 mi ESE 12.7 mph 18.4 mph N/A   Clear
10:15 AM 82.4 °F 87.2 °F 71.6 °F 70% 30.13 in 10.0 mi ESE 13.8 mph 17.3 mph N/A   Partly Cloudy
10:35 AM 82.4 °F 87.2 °F 71.6 °F 70% 30.13 in 10.0 mi ESE 13.8 mph - N/A   Partly Cloudy
10:55 AM 84.2 °F 89.6 °F 71.6 °F 66% 30.12 in 10.0 mi SE 12.7 mph 18.4 mph N/A   Partly Cloudy
11:15 AM 84.2 °F 88.4 °F 69.8 °F 62% 30.12 in 10.0 mi ESE 11.5 mph 18.4 mph N/A   Scattered Clouds
11:35 AM 84.2 °F 88.4 °F 69.8 °F 62% 30.13 in 10.0 mi SE 9.2 mph - N/A   Partly Cloudy
11:55 AM 84.2 °F 88.4 °F 69.8 °F 62% 30.12 in 10.0 mi SSE 9.2 mph - N/A   Partly Cloudy
12:15 PM 86.0 °F 89.4 °F 68.0 °F 55% 30.12 in 10.0 mi SSE 10.4 mph - N/A   Partly Cloudy
12:35 PM 86.0 °F 89.4 °F 68.0 °F 55% 30.11 in 10.0 mi SSE 8.1 mph - N/A   Scattered Clouds
1:15 PM 87.8 °F 92.6 °F 69.8 °F 55% 30.10 in 10.0 mi South 8.1 mph - N/A   Scattered Clouds
1:35 PM 87.8 °F 91.4 °F 68.0 °F 52% 30.10 in 10.0 mi South 8.1 mph - N/A   Scattered Clouds
1:55 PM 89.6 °F 94.7 °F 69.8 °F 52% 30.09 in 10.0 mi SSW 4.6 mph - N/A   Overcast
2:15 PM 87.8 °F 92.6 °F 69.8 °F 55% 30.08 in 10.0 mi South 11.5 mph - N/A   Mostly Cloudy
2:35 PM 87.8 °F 92.6 °F 69.8 °F 55% 30.08 in 10.0 mi South 8.1 mph - N/A   Scattered Clouds
2:55 PM 87.8 °F 92.6 °F 69.8 °F 55% 30.07 in 10.0 mi SSE 6.9 mph - N/A   Mostly Cloudy
3:15 PM 87.8 °F 92.6 °F 69.8 °F 55% 30.06 in 10.0 mi SSE 8.1 mph - N/A   Mostly Cloudy
3:35 PM 87.8 °F 92.6 °F 69.8 °F 55% 30.05 in 10.0 mi South 6.9 mph - N/A   Scattered Clouds
3:55 PM 87.8 °F 92.6 °F 69.8 °F 55% 30.05 in 10.0 mi SSE 10.4 mph - N/A   Mostly Cloudy
4:15 PM 87.8 °F 92.6 °F 69.8 °F 55% 30.04 in 10.0 mi South 4.6 mph - N/A   Scattered Clouds
4:35 PM 87.8 °F 92.6 °F 69.8 °F 55% 30.04 in 10.0 mi South 6.9 mph - N/A   Scattered Clouds
4:55 PM 87.8 °F 92.6 °F 69.8 °F 55% 30.03 in 10.0 mi SSE 6.9 mph - N/A   Partly Cloudy
5:15 PM 87.8 °F 93.8 °F 71.6 °F 58% 30.02 in 10.0 mi SSE 9.2 mph - N/A   Partly Cloudy
5:35 PM 87.8 °F 93.8 °F 71.6 °F 58% 30.02 in 10.0 mi South 10.4 mph - N/A   Clear
5:55 PM 86.0 °F 90.4 °F 69.8 °F 58% 30.02 in 10.0 mi South 9.2 mph - N/A   Clear
6:15 PM 84.2 °F 89.6 °F 71.6 °F 66% 30.02 in 10.0 mi South 12.7 mph - N/A   Scattered Clouds
6:35 PM 84.2 °F 89.6 °F 71.6 °F 66% 30.02 in 10.0 mi SSE 8.1 mph - N/A   Partly Cloudy
6:55 PM 84.2 °F 88.4 °F 69.8 °F 62% 30.02 in 10.0 mi South 5.8 mph - N/A   Clear
7:15 PM 84.2 °F 88.4 °F 69.8 °F 62% 30.02 in 10.0 mi South 4.6 mph - N/A   Clear
7:35 PM 82.4 °F 86.3 °F 69.8 °F 66% 30.02 in 10.0 mi South 5.8 mph - N/A   Clear
7:55 PM 82.4 °F 86.3 °F 69.8 °F 66% 30.03 in 10.0 mi Calm Calm - N/A   Clear
8:15 PM 82.4 °F 87.2 °F 71.6 °F 70% 30.04 in 10.0 mi ESE 3.5 mph - N/A   Clear
8:35 PM 80.6 °F 83.9 °F 69.8 °F 70% 30.05 in 10.0 mi East 4.6 mph - N/A   Clear
8:55 PM 80.6 °F 82.7 °F 66.2 °F 61% 30.06 in 10.0 mi East 6.9 mph - N/A   Clear
9:15 PM 78.8 °F - 64.4 °F 61% 30.07 in 10.0 mi East 5.8 mph - N/A   Clear
9:35 PM 78.8 °F - 64.4 °F 61% 30.07 in 10.0 mi East 9.2 mph - N/A   Clear
9:55 PM 77.0 °F - 62.6 °F 61% 30.08 in 10.0 mi East 9.2 mph - N/A   Clear
10:15 PM 77.0 °F - 62.6 °F 61% 30.09 in 10.0 mi East 8.1 mph - N/A   Clear
10:35 PM 75.2 °F - 62.6 °F 65% 30.09 in 10.0 mi East 10.4 mph - N/A   Clear
10:55 PM 75.2 °F - 62.6 °F 65% 30.10 in 10.0 mi East 8.1 mph - N/A   Unknown
11:15 PM 73.4 °F - 62.6 °F 69% 30.10 in 10.0 mi East 5.8 mph - N/A   Unknown
11:35 PM 73.4 °F - 62.6 °F 69% 30.11 in 10.0 mi East 4.6 mph - N/A   Unknown
11:55 PM 71.6 °F - 62.6 °F 73% 30.11 in 10.0 mi East 5.8 mph - N/A   Unknown